Location: Branche des Alpilles
(43.6087°N, 4.6976°E)
Time: 05:57:42
(UTC+00:00)

ADEOS Rocket - Pass Details

Date: 30 November 2020
Orbit: 858 x 1307 km, 98.7° (Epoch: 27 January)

Event Time Altitude Azimuth Distance (km) Brightness Sun altitude
Rises 16:57:14 0° 10° (N) 4,263 6.0 -9.2°
Reaches altitude 10° 16:59:56 10° 8° (N) 3,314 5.5 -9.7°
Maximum altitude 17:07:33 62° 291° (WNW) 1,457 4.2 -10.9°
Drops below altitude 10° 17:15:04 10° 213° (SSW) 3,265 6.5 -12.2°
Sets 17:17:43 0° 210° (SSW) 4,195 7.1 -12.7°
